Voltar ao catálogo

COSMOS 2251 DEB

AtivoLEO
NORAD 33838·DEBRIS·🇷🇺 Russia

Lançado Jun 16, 1993 de Plesetsk Cosmodrome

Loading…

Próximas Passagens (próximas 24 horas)

TLE

AtualizadoSource: Space-Track

Época: Sep 14, 2026, 06:09 UTC

1 33838U 93036CF  26257.25660493  .00000721  00000-0  19651-3 0  9998
2 33838  74.0393 353.5066 0026058  43.8773 346.7876 14.49035886925593

Acompanhe COSMOS 2251 DEB em tempo real com AllMySat

Download on the App Store